Погода в Светлицах

Россия / Новгородская область     58°00′24″N   30°21′29″E
темп.,
°C
ветер,
м/с
пор.,
м/с
влажн.,
%
обл.,
%
осадки,
мм/ч
давл.,
гПа
погр.,
м
15 мая, сб
сб1500:00+11вюв23875 0.0 100947
03:00+9в2495100 0.0 100871
06:00+11в2693100 0.0 1007160
09:00+15в3586100 0.8 1006431
12:00+18вюв347898 0.9 1005929
15:00+19ююв337598 3.7 1003919
18:00+18ююз358415 2.2 1003604
21:00+14зюз2294100 3.8 100317
16 мая, вс
вс1600:00+12з2297100 0.0 100336
03:00+12зюз2598100 0.0 1004138
06:00+11зюз3897100 0.1 1006215
09:00+14з358636 0.1 1007510
12:00+16зюз457355 0.0 1009903
15:00+20зюз354912 0.1 10091495
18:00+20з24556 0.0 10101562
21:00+16в226560 0.0 101017
17 мая, пн
пн1700:00+12юв238299 0.0 101141
03:00+11юв24920 0.0 101172
06:00+12юв389148 0.0 1011176
09:00+17юв4872100 0.0 1011485
12:00+21юв5860100 0.0 10101564
15:00+22ююв4752100 0.1 10082001
18:00+21ююв3767100 0.1 1008524
21:00+15з4797100 3.3 1007249
18 мая, вт
вт1800:00+14ссв4898100 4.1 1004212
03:00+14всв3899100 4.8 1002228
06:00+15вюв41298100 0.0 1000497
09:00+19юв51289100 0.0 999859
12:00+19ююв41087100 0.2 9991205
15:00+20ююв51080100 0.8 9991057
18:00+17ю51190100 1.9 998905
21:00+13юз61095100 2.3 1000713
19 мая, ср
ср1900:00+11юз5995100 0.1 1002595
03:00+10юз269831 0.1 1003209
06:00+9с019672 0.0 100348
09:00+11ссз2395100 0.6 1002257
12:00+10зсз4798100 7.6 1002427
15:00+9з4896100 14.5 1003372
18:00+10зюз3895100 1.6 1004529
21:00+10юз3897100 1.8 1004378